Theta_e
349 349 348 348 348 348 347 346 346 346 345 348 350 352 352 353 355 355 355 356 357 356 356 356 357 358 358 357 356 353 350 346 346 344 343 340 336 335 336 336 335 335
349 349 350 349 349 349 348 347 347 347 346 347 350 352 353 353 354 355 355 355 357 357 356 357 357 357 357 356 355 353 350 347 345 348 343 342 340 337 336 335 338 336
349 348 349 347 348 348 348 348 347 348 348 347 349 351 352 354 353 354 355 355 356 357 356 357 357 357 357 357 355 354 352 348 345 346 345 343 342 340 338 336 336 338
349 349 349 349 348 348 349 348 347 347 349 348 348 351 353 354 353 353 354 359 355 356 356 357 357 357 357 357 355 354 353 351 349 346 346 345 344 342 340 338 337 337
349 348 349 349 349 349 350 349 348 347 348 350 349 351 353 353 353 353 354 355 355 355 356 356 357 357 357 356 356 354 353 352 350 347 346 345 345 344 343 340 338 336
349 349 349 349 349 348 348 349 350 349 348 348 350 352 352 353 353 353 353 353 355 355 356 356 356 357 357 357 356 355 354 352 351 349 346 345 345 346 346 342 339 337
348 349 348 349 349 349 348 348 350 351 350 349 350 351 353 353 353 353 353 354 354 355 355 355 355 356 357 357 356 355 355 354 352 350 348 347 345 344 346 344 342 340
348 349 349 349 348 349 349 348 349 351 351 351 349 350 353 353 353 354 353 353 354 354 355 355 355 356 356 357 356 355 354 355 353 350 349 349 347 345 344 345 344 341
348 348 349 348 348 348 349 349 349 350 352 352 351 350 352 353 354 354 354 353 353 354 354 355 355 355 356 356 356 355 355 355 355 352 351 350 348 347 346 345 344 343
348 348 348 348 348 348 348 349 350 351 353 352 352 351 350 352 354 354 354 353 353 353 353 354 355 355 355 356 356 356 355 355 355 354 353 352 351 350 349 346 345 344
347 348 347 348 348 349 349 350 351 351 352 353 353 352 351 351 353 354 354 353 353 352 353 354 355 355 355 355 356 356 356 355 355 354 354 353 352 351 353 349 347 346
347 348 347 348 348 349 349 350 351 351 352 353 354 353 353 352 351 353 354 354 354 353 353 354 354 355 355 355 356 356 356 356 356 355 355 354 354 353 352 351 349 348
348 348 348 348 349 349 350 350 350 351 352 352 354 354 354 352 352 351 353 354 354 354 354 354 354 355 355 355 355 356 356 355 355 355 355 355 355 354 354 352 352 350
348 349 349 349 350 350 350 350 351 351 351 352 353 353 354 354 353 352 352 353 353 354 354 354 354 354 354 355 355 355 355 355 355 355 355 355 355 355 355 354 353 353
348 349 350 350 350 350 350 350 351 351 352 352 352 353 354 354 355 354 352 352 352 353 353 354 353 353 354 355 354 355 355 355 355 355 355 354 354 355 355 355 355 354
349 349 350 350 350 350 350 351 351 352 352 352 352 352 352 353 354 354 354 353 352 352 353 353 353 354 348 338 341 354 355 356 356 355 355 354 354 354 354 355 355 355
349 349 350 349 350 350 350 350 351 352 352 352 352 352 352 352 353 352 353 354 353 352 351 353 354 354 339 332 332 335 351 355 355 355 355 355 355 354 353 354 354 355
349 349 349 350 350 350 350 351 351 351 351 351 352 352 352 352 351 351 352 353 353 353 352 352 353 342 334 331 331 330 334 354 355 355 355 355 355 355 355 354 354 354
350 350 350 350 350 350 351 351 351 351 350 351 351 352 352 351 351 351 350 351 352 351 352 352 352 338 332 329 329 328 328 338 354 355 354 354 355 355 355 355 355 354
350 350 350 350 351 351 351 351 350 350 351 352 352 352 351 351 351 350 350 350 350 350 351 352 352 340 329 326 326 326 327 330 350 354 354 354 354 354 355 354 355 354
350 350 350 350 351 351 351 350 350 351 351 351 351 351 351 350 350 350 350 350 350 350 350 350 352 336 327 324 322 322 324 326 346 351 353 353 354 354 354 354 354 355
351 350 350 351 351 351 350 350 350 350 350 351 351 351 351 351 350 350 350 350 350 350 349 348 351 333 326 323 321 320 322 335 343 348 350 352 353 353 353 354 354 354
352 351 351 351 351 350 350 350 350 350 351 352 350 350 350 349 349 349 350 349 349 349 348 348 349 337 324 320 319 318 321 338 342 346 348 350 351 353 354 354 354 354
354 353 352 351 351 350 350 351 351 352 351 352 350 350 349 349 349 349 349 349 348 349 349 348 348 339 322 318 318 317 326 340 342 344 346 348 349 351 353 353 354 348
356 355 353 353 352 351 352 351 351 351 352 352 351 351 350 350 350 349 348 348 348 348 345 347 349 342 323 318 316 315 325 341 344 345 345 346 347 349 350 352 353 351
357 356 355 354 353 353 353 353 353 352 352 352 352 351 350 350 350 349 348 348 348 348 349 349 349 349 341 318 315 314 318 341 345 345 345 346 347 348 349 349 351 352
Wind_Speed
12 11 11 11 10 10 9 9 8 8 8 7 8 9 10 9 7 8 8 7 7 7 6 6 6 6 6 6 5 5 5 6 6 6 6 6 5 5 6 5 4 5
13 12 10 10 9 8 8 9 9 8 8 8 8 8 7 7 8 8 8 8 7 8 6 6 6 6 6 6 6 6 5 5 6 4 6 6 6 6 6 5 5 4
13 12 12 12 12 12 11 9 9 8 8 8 6 6 7 7 8 7 8 8 8 7 7 7 6 6 7 6 6 6 6 6 7 5 6 7 6 6 6 5 5 5
13 13 13 13 12 12 10 9 9 8 7 6 9 8 7 7 7 8 7 8 7 7 7 7 8 7 7 6 6 6 6 7 6 6 6 5 5 6 6 5 5 4
14 13 12 12 11 10 9 10 11 10 10 10 7 6 7 7 8 8 8 8 8 8 7 8 7 7 7 7 7 7 6 6 5 6 6 7 6 6 5 5 5 6
12 12 12 12 11 10 11 11 11 11 10 8 9 7 8 8 8 9 9 9 9 9 8 8 8 8 7 7 7 7 7 6 6 6 7 7 6 5 5 6 6 7
14 12 13 11 11 11 11 11 10 10 10 10 6 8 8 8 9 10 10 10 10 9 9 9 8 8 7 7 7 7 7 7 6 7 8 7 6 7 6 6 7 7
14 13 13 11 12 11 12 11 10 10 10 8 10 10 9 10 10 9 9 10 10 10 10 9 9 9 8 7 8 8 8 6 7 8 8 8 6 8 8 7 7 8
14 13 13 13 14 12 13 12 11 11 9 10 11 9 8 9 10 10 9 9 9 9 9 9 9 9 8 8 9 9 9 8 8 8 9 9 9 10 9 7 7 8
13 13 14 14 14 13 14 13 11 10 10 10 10 8 9 9 9 9 9 9 10 10 10 10 10 9 9 9 10 10 10 10 9 9 9 9 10 10 9 8 9 9
14 13 14 14 14 13 14 13 12 11 9 10 10 10 10 9 9 8 9 9 10 11 11 11 11 11 10 10 10 9 10 10 9 9 10 10 10 10 9 9 9 10
14 14 14 15 15 13 14 13 12 11 11 10 10 11 10 10 10 9 9 11 11 11 11 12 11 11 11 11 11 10 9 9 9 9 10 10 10 10 9 9 9 11
15 15 14 14 14 13 12 12 12 12 12 12 11 11 11 11 10 10 10 10 11 11 11 11 11 10 10 10 10 10 10 10 10 10 10 10 10 10 10 9 10 10
15 15 15 14 13 13 12 13 12 12 12 11 10 12 12 12 11 11 11 10 10 10 11 10 9 9 10 10 10 11 11 11 11 11 11 10 10 10 9 10 10 10
14 12 12 12 12 12 13 13 13 13 12 12 12 11 11 12 11 11 11 11 10 10 10 9 9 10 10 11 11 12 11 12 12 11 11 10 10 10 9 10 10 10
11 10 11 12 12 13 14 13 12 12 12 13 13 13 12 11 11 11 11 12 12 11 10 9 10 10 13 18 15 12 11 10 10 10 11 11 10 10 10 10 10 10
12 12 12 13 14 13 12 12 13 12 12 12 12 12 13 12 11 12 12 12 12 12 12 11 11 11 17 16 18 19 13 10 11 11 10 10 10 10 11 10 9 10
13 13 13 14 13 14 13 13 12 12 12 12 12 12 12 11 12 13 12 12 11 12 12 12 12 15 17 17 18 18 16 13 10 9 9 10 10 11 10 10 10 10
13 14 14 14 14 13 12 12 12 13 13 13 13 12 10 11 12 12 12 12 12 12 13 13 12 16 17 18 18 18 19 16 10 10 10 10 10 11 11 11 10 10
14 14 14 14 13 13 12 13 13 14 13 12 10 10 12 12 12 13 12 12 12 13 12 12 13 15 17 18 18 18 18 15 12 12 11 11 11 11 11 12 12 11
14 14 14 14 14 13 13 14 14 13 13 12 12 13 13 13 13 13 13 12 12 13 12 12 12 16 16 18 18 18 17 14 11 11 11 11 11 11 12 12 12 11
15 15 15 14 14 14 14 14 14 14 14 13 12 12 11 11 11 11 12 13 13 13 12 13 14 16 16 17 18 16 15 10 10 12 13 12 12 12 12 11 11 11
15 15 15 15 14 14 15 15 14 14 13 11 12 12 12 13 13 12 11 11 12 12 13 14 14 14 16 16 16 16 12 10 10 11 11 12 13 13 12 12 11 11
15 15 15 15 14 15 15 15 14 13 13 12 13 13 14 14 12 11 11 11 12 13 14 14 14 11 15 16 17 17 16 12 10 10 12 12 12 12 11 11 12 16
15 15 15 15 15 15 15 15 15 14 13 12 13 13 13 12 11 11 11 10 12 13 15 15 13 12 16 16 17 18 16 10 10 10 11 11 11 12 11 10 11 12
13 15 15 15 15 15 14 14 13 12 12 12 12 11 11 11 10 11 12 11 11 11 11 13 13 12 11 16 17 18 21 13 9 10 11 12 11 11 11 10 10 10
Wind_Direction
191 191 193 193 197 197 196 198 202 200 202 195 195 199 198 199 188 194 199 199 202 203 204 196 192 193 192 189 186 182 185 193 194 184 188 187 201 187 199 207 198 198
192 191 191 192 195 195 196 195 198 199 200 202 205 200 199 186 194 192 196 200 200 205 201 199 196 196 192 189 187 185 189 187 200 184 184 190 200 192 207 205 204 204
190 191 191 191 194 194 194 192 193 198 195 202 201 199 197 193 191 196 198 197 200 203 201 202 199 199 196 194 187 189 189 191 202 192 190 199 190 194 210 199 205 205
192 191 192 195 194 194 192 188 193 196 194 185 200 198 194 195 191 195 199 200 202 204 203 200 204 200 197 195 188 196 197 196 199 187 200 204 199 197 204 196 207 212
191 193 196 196 196 193 187 191 194 194 197 203 188 184 190 192 192 196 198 203 203 207 202 205 204 204 197 195 191 198 199 202 193 189 200 210 210 196 205 190 204 217
194 194 194 195 194 190 192 196 196 194 198 194 194 187 193 191 193 196 199 202 206 206 206 206 205 208 199 197 193 201 198 200 198 188 201 212 216 209 203 196 206 217
191 192 197 195 195 194 197 199 197 195 195 200 177 192 189 192 196 200 201 204 204 206 208 207 206 206 202 198 198 205 203 203 194 194 203 214 209 217 215 206 211 220
192 193 193 192 195 196 200 200 198 198 197 186 196 199 188 197 201 202 204 204 205 207 208 210 209 208 203 197 204 207 211 201 198 198 208 214 203 217 214 216 213 222
191 192 191 193 195 197 202 202 202 201 193 197 204 199 195 200 203 204 204 203 206 208 208 210 211 211 207 203 208 208 211 210 205 202 207 212 212 218 215 210 216 223
193 193 192 194 196 199 202 204 202 200 197 203 204 201 200 205 205 206 205 204 206 208 208 210 211 213 211 210 212 210 212 214 211 209 213 216 218 221 218 209 217 224
194 193 195 196 199 199 203 202 202 201 199 203 202 205 206 203 207 205 206 205 208 207 208 210 211 210 211 213 216 215 215 216 216 215 217 220 222 223 218 215 220 223
194 195 197 198 199 201 202 201 202 201 200 202 200 204 206 206 205 204 205 209 211 211 209 211 211 210 212 214 215 216 217 219 220 220 222 222 224 224 222 218 221 226
195 196 196 198 199 200 200 201 203 203 203 204 200 204 205 209 207 206 207 209 213 213 214 213 212 211 213 215 217 216 217 219 221 223 225 226 227 225 223 221 224 227
196 195 195 196 196 197 199 202 203 204 206 205 201 205 208 208 210 209 211 211 213 214 217 214 213 213 215 216 216 215 216 220 221 222 225 227 230 229 226 226 226 228
197 196 195 194 194 196 201 203 203 204 204 205 205 207 208 210 210 211 213 216 218 216 217 213 214 216 216 215 215 217 215 220 221 224 226 228 230 231 229 229 231 231
193 193 193 193 195 200 203 202 203 204 205 207 209 208 209 208 209 211 213 215 218 219 217 216 218 220 220 216 214 214 214 219 221 224 226 229 230 231 233 230 232 231
190 194 192 196 200 202 201 201 203 204 207 210 210 209 210 208 207 211 214 216 216 217 217 217 222 224 222 214 215 216 213 215 218 223 224 228 231 231 232 232 232 232
193 192 194 199 198 202 201 201 203 205 209 211 210 211 211 209 211 213 215 217 218 218 219 218 222 225 220 216 214 214 213 217 218 222 223 225 229 232 236 234 234 233
190 192 197 198 201 201 200 199 201 206 210 210 212 211 209 211 215 213 216 217 219 220 223 222 226 223 217 216 214 212 213 215 224 221 222 227 227 230 235 235 235 236
190 193 195 199 198 198 198 200 202 208 209 210 211 209 212 215 213 216 217 216 218 221 225 227 228 226 214 215 214 212 211 207 226 226 227 229 228 229 232 235 234 234
191 193 196 197 197 197 198 201 203 206 205 205 206 209 212 213 212 214 217 217 220 222 226 229 233 227 215 212 213 210 208 201 223 229 233 234 232 231 232 234 234 232
190 193 196 197 197 197 199 204 205 205 205 203 206 212 214 215 216 215 216 217 218 221 225 232 234 223 215 214 209 207 194 199 218 227 232 237 238 235 235 236 236 234
191 193 196 196 196 197 201 204 205 206 207 201 207 211 212 213 215 213 215 215 218 220 224 233 238 221 212 212 207 193 181 207 213 224 232 236 241 240 239 239 238 235
193 193 195 196 195 198 201 205 206 205 205 199 205 208 212 213 213 216 214 213 215 220 221 230 237 220 206 209 201 186 188 200 210 215 228 232 240 244 243 244 242 238
194 195 197 196 196 199 201 204 204 204 203 200 206 208 214 212 210 214 214 213 215 219 220 225 235 225 210 206 197 189 192 206 206 213 224 231 233 241 242 243 246 244
194 195 198 197 198 200 202 205 204 203 202 202 206 207 212 211 210 212 214 216 213 215 219 223 229 230 214 204 193 191 192 198 206 210 221 229 231 233 242 241 241 244